User: anonymous   Login
Location: Unspecified
(0.0000°N, 0.0000°E)
Time: 17:52:08
(UTC+00:00)
Language:

SWISSCUBE - Orbit

View from above orbital plane
View from above orbital plane
View from above satellite
View from above satellite

Ground track
Ground track

The orbit data is extracted from the following two-line orbital elements,

1 35932U 09051B   17111.92191765 +.00000285 +00000-0 +75694-4 0  9998
2 35932 098.4864 249.4475 0008768 069.1616 291.0519 14.55990594402099
Epoch (UTC): 21 April 2017 22:07:33
Eccentricity: 0.0008768
inclination: 98.4864°
perigee height: 700 km
apogee height: 712 km
right ascension of ascending node: 249.4475°
argument of perigee: 69.1616°
revolutions per day: 14.55990594
mean anomaly at epoch: 291.0519°
orbit number at epoch: 40209

The dashed part of the orbit path shows where the satellite is in the earth's shadow,  

DLR